This is the latest recevied weather packets stored in our database for station/object PI1GDA-1. If no packets are shown the sender has not sent any weather packets the latest 1 day(s).
| Time | Temp. | Humidity | Pressure | Rain* | Wind** | Luminosity | Snow |
|---|---|---|---|---|---|---|---|
| 1778016369 | 10.56° C | 78% | 1011.2 hPa | 0 mm | 2.24 m/s, 0° | - | - |
| 1778015767 | 10.56° C | 78% | 1011.2 hPa | 0 mm | 2.24 m/s, 45° | - | - |
| 1778015167 | 10.56° C | 78% | 1011.2 hPa | 0 mm | 2.68 m/s, 0° | - | - |
| 1778014565 | 11.11° C | 78% | 1011.3 hPa | 0 mm | 2.68 m/s, 0° | - | - |
| 1778013964 | 11.11° C | 79% | 1011.4 hPa | 0 mm | 1.79 m/s, 22° | - | - |
| 1778013360 | 11.11° C | 79% | 1011.4 hPa | 0 mm | 1.34 m/s, 22° | - | - |
| 1778012759 | 11.11° C | 79% | 1011.4 hPa | 0 mm | 1.34 m/s, 0° | - | - |
| 1778012159 | 11.11° C | 79% | 1011.3 hPa | 0 mm | 1.34 m/s, 0° | - | - |
| 1778011557 | 11.67° C | 79% | 1011.3 hPa | 0 mm | 1.79 m/s, 338° | - | - |
| 1778010956 | 11.67° C | 78% | 1011.3 hPa | 0 mm | 1.79 m/s, 68° | - | - |
| 1778010355 | 11.67° C | 78% | 1011.1 hPa | 0 mm | 2.24 m/s, 338° | - | - |
| 1778009755 | 11.67° C | 78% | 1011 hPa | 0 mm | 2.24 m/s, 22° | - | - |
| 1778009155 | 11.67° C | 78% | 1010.9 hPa | 0 mm | 2.24 m/s, 45° | - | - |
| 1778008554 | 12.22° C | 77% | 1010.8 hPa | 0 mm | 2.68 m/s, 68° | - | - |
| 1778007954 | 12.22° C | 77% | 1010.7 hPa | 0 mm | 2.24 m/s, 22° | - | - |
| 1778007353 | 12.22° C | 76% | 1010.6 hPa | 0 mm | 3.13 m/s, 22° | - | - |
| 1778006753 | 12.22° C | 75% | 1010.5 hPa | 0 mm | 2.68 m/s, 90° | - | - |
| 1778006149 | 12.78° C | 75% | 1010.4 hPa | 0 mm | 3.13 m/s, 112° | - | - |
| 1778005549 | 12.78° C | 74% | 1010.6 hPa | 0 mm | 2.68 m/s, 68° | - | - |
| 1778004949 | 13.33° C | 74% | 1010.5 hPa | 0 mm | 2.68 m/s, 68° | - | - |
| 1778004348 | 13.33° C | 74% | 1010.5 hPa | 0 mm | 3.13 m/s, 0° | - | - |
| 1778003746 | 13.33° C | 73% | 1010.5 hPa | 0 mm | 2.68 m/s, 22° | - | - |
| 1778003146 | 13.89° C | 72% | 1010.6 hPa | 0 mm | 3.13 m/s, 22° | - | - |
| 1778002545 | 13.89° C | 71% | 1010.5 hPa | 0 mm | 2.68 m/s, 22° | - | - |
| 1778001944 | 14.44° C | 70% | 1010.7 hPa | 0 mm | 2.68 m/s, 45° | - | - |
* Rain latest hour (hover to see other rain measurements)
** Current wind speed in m/s (hover to see current wind gust speed)